User: anonymous   Login
Location: Columbia
(38.9520°N, 92.3340°W)
Time: 19:51:24
(UTC-06:00)
Language:

CZ-2C R/B - Orbit

View from above orbital plane
View from above orbital plane
View from above satellite
View from above satellite

Ground track
Ground track

The orbit data is extracted from the following two-line orbital elements,

1 28480U 04046B   16337.87440824  .00000029  00000-0  25959-4 0  9998
2 28480  98.1945  80.7622 0143258  84.0051  24.2699 14.25618708626262
Epoch (UTC): 02 December 2016 20:59:08
Eccentricity: 0.0143258
inclination: 98.1945°
perigee height: 703 km
apogee height: 909 km
right ascension of ascending node: 80.7622°
argument of perigee: 84.0051°
revolutions per day: 14.25618708
mean anomaly at epoch: 24.2699°
orbit number at epoch: 62626

The dashed part of the orbit path shows where the satellite is in the earth's shadow,  

DLR